Regional Weather Roundup
Issued by NWS

Home | Current Version | Previous Version | Text Only | Print | Product List | Glossary On
Versions: 1 2 3 4 5 6 7 8 9 10 11 12 13 14 15 16 17 18 19 20 21 22 23 24 25 26 27
000
ASUS45 KBOU 191007
RWRCO

WEATHER ROUNDUP FOR COLORADO
NATIONAL WEATHER SERVICE DENVER/BOULDER CO
400 AM MDT WED JUL 19 2017

NOTE: "FAIR" INDICATES FEW OR NO CLOUDS BELOW 12000 FEET WITH NO
SIGNIFICANT WEATHER AND/OR OBSTRUCTIONS TO VISIBILITY.

COZ001>005-013-030-031-191100-
...NORTHWEST COLORADO...

CITY           SKY/WX    TMP DP  RH WIND       PRES   REMARKS
CRAIG          FAIR      56  46  69 CALM      30.24S
HAYDEN         FAIR      63  43  48 E10       30.26S
MEEKER         FAIR      59  48  67 NE5       30.26S
RABBIT EARS PA FAIR      59  41  51 CALM      30.60S
STEAMBOAT SPGS FAIR      57  45  64 CALM      30.30S
WALDEN         FAIR      50  39  66 SE10      30.41F
$$

COZ006>008-011-191100-
...WEST CENTRAL VALLEYS...

CITY           SKY/WX    TMP DP  RH WIND       PRES   REMARKS
GRAND JUNCTION FAIR      78  51  38 SE15      30.13S
MONTROSE       FAIR      68  49  50 S5        30.25R
EAGLE          FAIR      60  47  61 CALM      30.34R
RIFLE          FAIR      68  49  50 SW5       30.20S
DELTA          FAIR      72  50  46 NE6       30.20S
NUCLA          FAIR      66  46  48 E9        30.29F
$$

COZ017>023-064>068-191100-
...SOUTHWEST COLORADO...

CITY           SKY/WX    TMP DP  RH WIND       PRES   REMARKS
DURANGO        CLOUDY    65  52  62 NE10      30.38R
CORTEZ         MOCLDY    67  54  63 NE5       30.27F
PAGOSA SPRINGS CLOUDY    65  47  53 E7G17     30.48S
TELLURIDE      FAIR      59  47  65 SE7       30.53S
WOLF CREEK PAS CLOUDY    45  45 100 S6        30.81R
$$

COZ009-010-012-014-032>034-037-058>063-191100-
...CENTRAL COLORADO...

CITY           SKY/WX    TMP DP  RH WIND       PRES   REMARKS
ASPEN          FAIR      56  46  69 SW7       30.39S
BUENA VISTA    FAIR      54  49  83 W5        30.47R
COPPER MTN     FAIR      59  37  44 S17       30.74S
BERTHOUD PASS  FAIR      48  34  57 SW9       30.77S
COTTONWOOD PAS FAIR      57  45  62 CALM      30.59S
GUNNISON       FAIR      56  52  86 N6        30.45S
KREMMLING      FAIR      55  46  71 W3        30.39S
LEADVILLE      FAIR      43  41  93 NE3       30.57R
MONARCH PASS   MOCLDY    46  41  81 SW18      30.84S
SALIDA         FAIR      59  51  74 CALM      30.50S
SUNLIGHT       FAIR      54  37  54 S9        30.65S
WILKERSON PASS FAIR      48  43  81 SW12G18   30.69F
$$

COZ069>075-191100-
...SAN LUIS VALLEY/SANGRE DE CRISTO MOUNTAINS...

CITY           SKY/WX    TMP DP  RH WIND       PRES   REMARKS
ALAMOSA        FAIR      59  55  87 E5        30.44F
DEL NORTE      MOCLDY    56  52  85 W7        30.48S
LA VETA PASS   NOT AVBL
SAGUACHE         N/A    N/A N/A N/A MISG        N/A
$$

COZ035-036-038>040-191100-
...NORTHERN COLORADO FRONT RANGE...

CITY           SKY/WX    TMP DP  RH WIND       PRES   REMARKS
DENVER INTL AP MOCLDY    71  57  61 S14       30.17F
DMNS CITY PARK   N/A     72  50  46 SE8       30.17F
AURORA         NOT AVBL
FRONT RANGE AP FAIR      72  61  68 S10G16    30.19F
ERIE MUNI ARPT FAIR      65  50  58 CALM      30.16F
BOULDER MUN AP FAIR      70  50  49 SW3       30.16F
CENTENNIAL     MOCLDY    69  55  60 S7        30.21F
BROOMFIELD     FAIR      70  46  43 N3        30.20F
FORT COLLINS   NOT AVBL
LONGMONT       FAIR      66  52  60 NW3       30.17F
$$

COZ041-046-047-076>085-087-088-191100-
...PIKES PEAK/PALMER DIVIDE AND SOUTHERN FOOTHILLS...

CITY           SKY/WX    TMP DP  RH WIND       PRES   REMARKS
COLO. SPRINGS  MOCLDY    66  62  87 NE8       30.26F
A. F. ACADEMY  NOT AVBL
SCHRIEVER AFB  FAIR      65  60  82 N5        30.27F
CHEYENNE MTN   MOCLDY    67  51  55 CALM      30.26F
ELLICOTT       FAIR     N/A N/A N/A CALM      30.25F
FALCON           N/A     63  61  91 N3        30.32F
FORT CARSON    MOCLDY    64  56  76 N3        30.23F
LIMON          FAIR      63  60  90 CALM      30.20F
MONUMENT HILL  FAIR      59  55  88 SW8       30.33F
CANON CITY     CLEAR     72  55  56 W9        30.21F
WALSENBURG     FAIR      70  54  56 W7G16     30.28R
TRINIDAD       FAIR      67  54  63 W12       30.25F
$$

COZ042>045-048>051-090-091-191100-
...NORTHEAST COLORADO...

CITY           SKY/WX    TMP DP  RH WIND       PRES   REMARKS
GREELEY ARPT   FAIR      66  58  75 N7        30.15F
AKRON          FAIR      66  55  67 S6        30.14F
BURLINGTON     FAIR      72  69  90 SE5       30.10F
WRAY           NOT AVBL
YUMA           NOT AVBL
STERLING       FAIR      64  59  82 CALM      30.11S
HOLYOKE        CLOUDY    68  64  88 CALM      30.11S
FORT MORGAN    FAIR      67  56  67 S3        30.14S
$$

COZ086-089-092>099-191100-
...SOUTHEAST COLORADO...

CITY           SKY/WX    TMP DP  RH WIND       PRES   REMARKS
PUEBLO         FAIR      68  56  65 W5        30.17S
LA JUNTA       FAIR      71  57  61 SW9       30.13F
LAMAR          FAIR      69  59  70 SW10      30.09S
SPRINGFIELD      N/A     72  56  57 SW12      30.17F
$$




USA.gov is the U.S. government's official web portal to all federal, state and local government web resources and services.